Location: Newark
(49.8900°N, 17.8822°E)
Time: 07:44:40
(UTC+00:00)

Envisat - Pass Details

Date: 31 August 2019
Orbit: 764 x 766 km, 98.1° (Epoch: 22 September)

Event Time Altitude Azimuth Distance (km) Brightness Sun altitude
Rises 18:27:08 0° 216° (SW) 3,223 6.4 -8.7°
Reaches altitude 10° 18:30:32 10° 241° (WSW) 2,303 6.0 -9.2°
Maximum altitude 18:33:16 15° 274° (W) 2,009 6.3 -9.6°
Drops below altitude 10° 18:36:02 10° 307° (NW) 2,312 7.0 -10.0°
Sets 18:39:28 0° 331° (NNW) 3,245 7.3 -10.5°
